EW7736 Weather Reports


Display with metric or nautical units.
time (UTC)temp
F
wind
direction
speed
MPH
gust
MPH
rain 1hr
in
rain 24hr
in
rain mn
in
humidity
%
barometer
mb
20260905191023 77 158 0.0 1.0 0.00 0.00 0.00 75 1012.8
20260905190023 77 181 0.0 1.0 0.00 0.00 0.00 75 1013.0
20260905181646 77 129 0.0 0.0 0.00 0.00 0.00 75 1013.3
20260905180648 77 129 0.0 0.0 0.00 0.00 0.00 75 1013.2
20260905175625 77 129 0.0 0.0 0.00 0.00 0.00 75 1013.3
20260905171153 76 119 0.0 2.0 0.00 0.00 0.00 75 1013.7
20260905170138 77 119 0.0 3.0 0.00 0.00 0.00 74 1013.8
20260905165159 78 175 0.0 3.0 0.00 0.00 0.00 73 1013.9
20260905164157 77 122 0.0 0.0 0.00 0.00 0.00 74 1013.7
20260905163156 77 136 0.0 1.0 0.00 0.00 0.00 74 1013.8
20260905162212 77 189 0.0 1.0 0.00 0.00 0.00 75 1013.8
20260905161206 77 151 0.0 0.0 0.00 0.00 0.00 75 1013.9
20260905160200 76 205 0.0 3.0 0.00 0.02 0.00 75 1014.1
20260905155137 75 124 0.0 4.0 0.00 0.02 0.00 75 1014.1
20260905154156 75 120 0.0 0.0 0.00 0.02 0.00 75 1014.1
20260905153150 75 129 0.0 0.0 0.00 0.02 0.00 75 1014.1
20260905150946 74 139 0.0 0.0 0.00 0.02 0.00 62 1014.3
20260905145923 73 139 0.0 0.0 0.00 0.02 0.00 60 1014.3
20260905143800 72 139 0.0 0.0 0.00 0.02 0.00 39 1014.2
20260905142754 72 139 0.0 0.0 0.00 0.02 0.00 3 1013.9
20260905141758 71 139 0.0 0.0 0.00 0.02 0.00 1 1013.9
20260905140742 71 139 0.0 0.0 0.00 0.02 0.00 1 1013.8
20260905135714 71 139 0.0 0.0 0.00 0.02 0.00 1 1013.9
20260905134719 71 139 0.0 0.0 0.00 0.02 0.00 1 1013.8
20260905133741 70 139 0.0 0.0 0.00 0.02 0.00 1 1014.0
20260905132739 70 139 0.0 0.0 0.00 0.02 0.00 1 1014.0
20260905131724 71 139 0.0 0.0 0.00 0.02 0.00 1 1014.1
20260905130658 71 139 0.0 0.0 0.00 0.02 0.00 1 1014.1
20260905125713 70 139 0.0 0.0 0.00 0.02 0.00 1 1014.2
20260905124704 70 139 0.0 0.0 0.00 0.02 0.00 1 1014.2
20260905123652 70 139 0.0 0.0 0.00 0.02 0.00 1 1014.1
20260905121515 70 139 0.0 0.0 0.00 0.02 0.00 1 1014.0
20260905120535 70 139 0.0 0.0 0.00 0.02 0.00 1 1014.0
20260905115525 71 139 0.0 0.0 0.00 0.02 0.00 1 1013.8
20260905114517 71 205 0.0 0.0 0.00 0.02 0.00 1 1013.6
20260905113459 71 116 0.0 0.0 0.00 0.02 0.00 1 1013.4
20260905112518 71 116 0.0 0.0 0.00 0.02 0.00 1 1013.0
20260905111534 71 116 0.0 0.0 0.00 0.02 0.00 1 1013.2
20260905110506 71 51 0.0 0.0 0.00 0.02 0.00 1 1013.2
20260905104328 71 51 0.0 0.0 0.00 0.02 0.00 1 1013.4
20260905103313 71 51 0.0 0.0 0.00 0.02 0.00 1 1013.3
20260905102305 71 51 0.0 0.0 0.00 0.02 0.00 1 1013.1
20260905101238 71 51 0.0 0.0 0.00 0.02 0.00 1 1012.9
20260905100235 71 51 0.0 0.0 0.00 0.02 0.00 1 1012.8
20260905095242 71 51 0.0 0.0 0.00 0.02 0.00 1 1012.9
20260905094255 71 51 0.0 0.0 0.00 0.02 0.00 1 1012.8
20260905093222 71 51 0.0 0.0 0.00 0.02 0.00 1 1013.0
20260905092213 71 51 0.0 0.0 0.00 0.02 0.00 1 1012.6
20260905091223 71 51 0.0 0.0 0.00 0.02 0.00 1 1012.6
20260905090213 71 51 0.0 0.0 0.00 0.02 0.00 1 1012.8
20260905084108 72 51 0.0 0.0 0.00 0.02 0.00 1 1012.6
20260905083133 72 51 0.0 0.0 0.00 0.02 0.00 1 1013.0
20260905082116 72 51 0.0 0.0 0.00 0.02 0.00 1 1012.9
20260905075959 72 51 0.0 0.0 0.00 0.02 0.00 1 1012.8
20260905074942 72 51 0.0 0.0 0.00 0.02 0.00 1 1012.8
20260905073913 72 51 0.0 0.0 0.00 0.07 0.00 1 1013.1
20260905072934 72 51 0.0 0.0 0.00 0.07 0.00 1 1013.3
20260905070846 72 51 0.0 0.0 0.00 0.25 0.00 1 1013.5
20260905065824 72 51 0.0 0.0 0.00 0.25 0.00 1 1013.7
20260905064800 72 51 0.0 0.0 0.00 0.25 0.00 1 1013.9
20260905062609 72 51 0.0 0.0 0.00 0.42 0.00 1 1014.0
20260905061536 72 51 0.0 0.0 0.00 0.42 0.00 1 1014.0
20260905060514 72 51 0.0 0.0 0.00 0.42 0.00 1 1014.2
20260905055512 72 51 0.0 0.0 0.00 0.42 0.00 1 1014.3
20260905053327 72 51 0.0 0.0 0.00 0.42 0.00 1 1014.6
20260905052313 72 51 0.0 0.0 0.00 0.42 0.00 1 1014.7
20260905051333 72 51 0.0 0.0 0.00 0.42 0.00 1 1014.9
20260905050318 72 51 0.0 0.0 0.00 0.42 0.00 1 1014.7
20260905042929 72 45 0.0 0.0 0.00 0.42 0.00 1 1014.7
20260905041908 72 45 0.0 0.0 0.00 0.42 0.00 4 1014.6
20260905034632 72 45 0.0 0.0 0.00 0.42 0.43 6 1014.5
20260905033604 72 45 0.0 0.0 0.00 0.42 0.43 5 1014.5
20260905032606 72 101 0.0 0.0 0.00 0.42 0.43 4 1014.6
20260905031600 72 101 0.0 0.0 0.00 0.42 0.43 4 1014.4
20260905030547 72 101 0.0 0.0 0.00 0.42 0.43 5 1014.6
20260905025518 72 101 0.0 0.0 0.00 0.42 0.43 1 1014.7
20260905024520 72 101 0.0 0.0 0.00 0.42 0.43 5 1014.6
20260905022420 72 101 0.0 0.0 0.00 0.42 0.43 17 1014.7
20260905021442 73 101 0.0 0.0 0.00 0.42 0.43 21 1014.7
20260905020432 73 101 0.0 0.0 0.00 0.42 0.43 24 1014.7
20260905015438 73 101 0.0 0.0 0.00 0.42 0.43 28 1014.6
20260905014418 73 101 0.0 0.0 0.00 0.44 0.43 38 1014.4
20260905013359 73 101 0.0 0.0 0.00 0.44 0.43 40 1014.5
20260905012340 74 101 0.0 0.0 0.00 0.44 0.43 48 1014.4
20260905011319 74 101 0.0 0.0 0.00 0.45 0.43 48 1014.4
20260905010255 74 101 0.0 0.0 0.00 0.66 0.43 51 1014.3
20260905005259 75 101 0.0 0.0 0.00 1.02 0.43 54 1014.2
20260905004229 75 101 0.0 0.0 0.00 1.16 0.43 55 1014.2
20260905003237 75 101 0.0 0.0 0.00 1.16 0.43 56 1014.3
20260905002253 75 101 0.0 0.0 0.00 1.24 0.43 58 1014.0
20260905001238 75 101 0.0 0.0 0.00 1.35 0.43 58 1014.0
20260905000248 75 101 0.0 0.0 0.00 1.35 0.43 59 1014.1
20260904235231 75 101 0.0 0.0 0.00 1.35 0.43 60 1013.9
20260904233101 76 101 0.0 0.0 0.00 1.35 0.43 63 1013.9
20260904232116 76 101 0.0 0.0 0.00 1.35 0.43 64 1014.1
20260904231050 76 46 0.0 0.0 0.00 1.35 0.43 67 1014.1
20260904230021 76 46 0.0 0.0 0.00 1.35 0.43 68 1014.0
20260904225012 77 46 0.0 4.0 0.00 1.35 0.43 69 1013.9
20260904223956 77 51 0.0 4.0 0.00 1.36 0.43 68 1013.8
20260904223006 77 49 0.0 2.0 0.00 1.36 0.43 69 1013.9
20260904220849 78 56 0.0 4.0 0.00 1.36 0.43 69 1013.9
20260904215856 78 53 0.0 3.0 0.00 1.36 0.43 70 1014.0
20260904211433 81 56 0.0 1.0 0.00 1.36 0.43 73 1014.2
20260904205216 80 116 0.0 0.0 0.00 1.36 0.43 75 1014.4
20260904204151 80 115 0.0 1.0 0.00 1.36 0.43 75 1014.4
20260904203138 81 115 0.0 0.0 0.00 1.36 0.43 75 1014.2
20260904201022 80 103 0.0 5.0 0.00 1.36 0.43 75 1014.1
20260904194832 79 121 0.0 2.0 0.00 1.36 0.43 72 1014.8
20260904193804 78 108 0.0 1.0 0.00 1.36 0.43 72 1015.0
20260904192810 78 116 0.0 0.0 0.00 1.36 0.43 71 1015.1
20260904191831 78 117 0.0 2.0 0.00 1.36 0.43 70 1015.4